User: anonymous   Login
Location: Baix
(44.7118°N, 4.7648°E)
Time: 11:30:57
(UTC+00:00)
Language:

SJ 16-02 - Orbit

View from above orbital plane
View from above orbital plane
View from above satellite
View from above satellite

Ground track
Ground track

The orbit data is extracted from the following two-line orbital elements,

1 41634U 16043A   20305.16634606  .00000196  00000-0  25724-4 0  9994
2 41634  75.0041 178.9452 0007547 322.9600  37.1074 14.85726131235390
Epoch (UTC): 31 October 2020 03:59:32
Eccentricity: 0.0007547
inclination: 75.0041°
perigee height: 606 km
apogee height: 616 km
right ascension of ascending node: 178.9452°
argument of perigee: 322.9600°
revolutions per day: 14.85726131
mean anomaly at epoch: 37.1074°
orbit number at epoch: 23539

The dashed part of the orbit path shows where the satellite is in the earth's shadow,  

DLR